Weather in Mykolaivka

Ukraine / Dnipropetrovsk Region     47°59′07″N   34°09′21″E
temp.,
°C
wind,
m/s
gust,
m/s
humid.,
%
clouds,
%
prec.,
mm/h
press.,
hPa
HPBL,
m
12 may, wed
wed1200:00+7nne5118335 0.0 1015355
03:00+8nne5981100 0.0 1014759
06:00+7ne5885100 0.1 1014636
09:00+8ne458281 0.4 1014616
12:00+10nne347269 0.3 1013811
15:00+11ne226398 1.3 1013952
18:00+12nne216572 0.3 1012718
21:00+8nne228277 0.4 101315
13 may, thu
thu1300:00+7e228612 0.0 101311
03:00+7s1185100 0.0 101312
06:00+7se22864 0.0 101439
09:00+13se33644 0.0 1014670
12:00+17sse335572 0.0 10131182
15:00+20sse445299 0.0 10121356
18:00+19e3462100 0.0 1011312
21:00+16ese457098 0.0 101173
14 may, fri
fri1400:00+13se348734 0.0 101054
03:00+13se3493100 0.0 101070
06:00+12sse339612 0.0 101065
09:00+18s4566100 0.0 1010460
12:00+22s5646100 0.0 1010905
15:00+23s5745100 0.0 10101075
18:00+21s4757100 0.0 1010410
21:00+17ssw4772100 0.0 1010119
15 may, sat
sat1500:00+14sw36805 0.0 101185
03:00+13sw228880 0.0 101124
06:00+13ssw368486 0.0 1012115
09:00+19sw45655 0.0 1012520
12:00+22wsw4648100 0.0 10131686
15:00+24sw4641100 0.0 10122597
18:00+21s466088 0.0 1012301
21:00+19s225885 0.0 101317
16 may, sun
sun1600:00+16sse33775 0.0 101323
03:00+14ese117866 0.0 101311
06:00+15ene337972 0.0 101239
09:00+21ene465838 0.0 1012511
12:00+25e564678 0.0 10111746
15:00+26e6741100 0.0 10101928
18:00+25ene5853100 0.0 1008361
21:00+20ne4107243 0.0 1008150